Weather History for Akron, CO

Change the Weather History Date:

Friday, May 24, 2013

  Actual Average Record
Temperature  
Mean Temperature 72 °F 60 °F  
Max Temperature 89 °F 73 °F 92 °F (1967)
Min Temperature 54 °F 46 °F 36 °F (1946)
Degree Days  
Heating Degree Days 0    
Month to date heating degree days 243  
Cooling Degree Days 7    
Month to date cooling degree days 33  
Growing Degree Days 20 (Base 50)    
Moisture  
Dew Point 51 °F    
Average Humidity 55    
Maximum Humidity 100    
Minimum Humidity 9    
Precipitation  
Precipitation 0.01 in 0.10 in 2.27 in (1948)
Month to date precipitation 1.43 2.19  
Year to date precipitation 3.88 5.45  
Sea Level Pressure  
Sea Level Pressure 29.91 in    
Wind  
Wind Speed 17 mph (SSE)    
Max Wind Speed 24 mph    
Max Gust Speed 38 mph    
Visibility 6 miles    
Events Rain    
T = Trace of Precipitation, MM = Missing Value Source: NWS Daily Summary

Daily Weather History Graph

Daily Weather History Graph

Search for Another Location

Airport:

Trip Planner

Search our weather history database for the weather conditions in past years. The results will help you decide how hot, cold, wet, or windy it might be!

Date:

Astronomy

May. 24, 2013 Rise Set
Actual Time 5:29 AM MDT 8:10 PM MDT
Civil Twilight 4:58 AM MDT 8:41 PM MDT
Nautical Twilight 4:18 AM MDT 9:21 PM MDT
Astronomical Twilight 3:33 AM MDT 10:06 PM MDT
Moon 7:54 PM MDT (5/24) 5:03 AM MDT (5/24)
Length of Visible Light 15h 43m
Length of Day
14h 40m
Full, 100% of the Moon is Illuminated
May 24
Full
May 24
Full
May 31
Last Quarter
Jun 8
New
Jun 16
First Quarter

Hourly Weather History & Observations

Time (MDT) Temp. Dew Point Humidity Pressure Visibility Wind Dir Wind Speed Gust Speed Precip Events Conditions
12:33 AM 55.4 °F 53.6 °F 94% 30.08 in 2.5 mi SSE 21.9 mph 29.9 mph N/A   Overcast
12:50 AM 53.6 °F 53.6 °F 100% 30.07 in 1.8 mi SSE 17.3 mph 28.8 mph 0.00 in Rain Light Rain
12:53 AM 54.0 °F 53.1 °F 97% 30.00 in 2.0 mi SSE 18.4 mph 28.8 mph 0.00 in Rain Light Rain
1:53 AM 55.0 °F 53.1 °F 93% 29.97 in 2.5 mi SSE 23.0 mph 29.9 mph 0.00 in Rain Light Rain
2:05 AM 55.4 °F 53.6 °F 94% 30.05 in 4.0 mi SSE 19.6 mph 31.1 mph 0.00 in Rain Light Rain
2:22 AM 53.6 °F 53.6 °F 100% 30.04 in 2.0 mi SSE 21.9 mph 28.8 mph 0.00 in Rain Light Rain
2:53 AM 54.0 °F 53.1 °F 97% 29.95 in 2.0 mi SSE 20.7 mph - 0.00 in   Overcast
3:17 AM 53.6 °F 53.6 °F 100% 30.03 in 1.8 mi SSE 17.3 mph - 0.01 in Rain Light Rain
3:25 AM 53.6 °F 53.6 °F 100% 30.02 in 2.0 mi SSE 20.7 mph - 0.01 in Rain Light Rain
3:53 AM 54.0 °F 54.0 °F 100% 29.94 in 2.0 mi SSE 16.1 mph - 0.01 in   Overcast
4:07 AM 53.6 °F 53.6 °F 100% 30.02 in 1.8 mi SSE 17.3 mph - N/A   Overcast
4:14 AM 55.4 °F 53.6 °F 94% 30.02 in 2.0 mi SSE 17.3 mph 23.0 mph N/A   Overcast
4:53 AM 55.0 °F 54.0 °F 96% 29.92 in 2.0 mi SSE 15.0 mph - N/A   Overcast
5:24 AM 55.4 °F 53.6 °F 94% 30.01 in 3.0 mi SSE 12.7 mph - N/A   Overcast
5:53 AM 55.0 °F 54.0 °F 96% 29.92 in 3.0 mi SE 13.8 mph - N/A   Overcast
6:07 AM 55.4 °F 53.6 °F 94% 30.03 in 2.5 mi SE 11.5 mph - N/A   Overcast
6:53 AM 55.9 °F 55.0 °F 97% 29.92 in 2.5 mi SSE 19.6 mph - N/A   Scattered Clouds
7:04 AM 55.4 °F 55.4 °F 100% 30.02 in 3.0 mi SSE 18.4 mph - N/A   Mostly Cloudy
7:36 AM 57.2 °F 55.4 °F 94% 30.02 in 5.0 mi SSE 17.3 mph 21.9 mph N/A   Mostly Cloudy
7:53 AM 57.9 °F 55.0 °F 90% 29.93 in 7.0 mi SE 15.0 mph - N/A   Mostly Cloudy
8:20 AM 60.8 °F 55.4 °F 82% 30.03 in 8.0 mi SSE 13.8 mph - N/A   Mostly Cloudy
8:34 AM 60.8 °F 55.4 °F 82% 30.03 in 9.0 mi SSE 18.4 mph - N/A   Mostly Cloudy
8:53 AM 61.0 °F 55.0 °F 81% 29.93 in 10.0 mi South 15.0 mph 23.0 mph N/A   Mostly Cloudy
9:37 AM 64.4 °F 55.4 °F 73% 30.02 in 10.0 mi South 15.0 mph 21.9 mph N/A   Scattered Clouds
9:53 AM 66.0 °F 55.0 °F 68% 29.90 in 10.0 mi South 15.0 mph 24.2 mph N/A   Clear
10:53 AM 72.0 °F 53.1 °F 51% 29.88 in 10.0 mi South 16.1 mph - N/A   Clear
11:53 AM 77.0 °F 53.1 °F 43% 29.85 in 10.0 mi South 12.7 mph 25.3 mph N/A   Clear
12:53 PM 81.0 °F 46.9 °F 30% 29.82 in 10.0 mi South 9.2 mph 25.3 mph N/A   Clear
1:53 PM 84.0 °F 39.9 °F 21% 29.79 in 10.0 mi SSW 10.4 mph 25.3 mph N/A   Clear
2:53 PM 88.0 °F 28.0 °F 12% 29.76 in 10.0 mi SW 20.7 mph 26.5 mph N/A   Clear
3:53 PM 88.0 °F 21.0 °F 9% 29.74 in 10.0 mi South 17.3 mph 28.8 mph N/A   Clear
4:40 PM 87.8 °F 33.8 °F 15% 29.90 in 10.0 mi WNW 8.1 mph 26.5 mph N/A   Clear
4:53 PM 86.0 °F 35.1 °F 16% 29.72 in 10.0 mi Variable 4.6 mph - N/A   Clear
5:53 PM 82.0 °F 50.0 °F 33% 29.71 in 10.0 mi NE 11.5 mph - N/A   Clear
6:53 PM 73.9 °F 57.0 °F 55% 29.74 in 10.0 mi NE 12.7 mph 23.0 mph N/A   Clear
7:53 PM 68.0 °F 57.0 °F 68% 29.75 in 10.0 mi NNE 10.4 mph - N/A   Clear
8:53 PM 64.0 °F 55.9 °F 75% 29.76 in 10.0 mi North 10.4 mph - N/A   Clear
9:53 PM 60.1 °F 54.0 °F 80% 29.76 in 10.0 mi East 10.4 mph - N/A   Clear
10:53 PM 61.0 °F 51.1 °F 70% 29.74 in 10.0 mi SSE 6.9 mph - N/A   Clear
11:53 PM 62.1 °F 44.1 °F 52% 29.74 in 10.0 mi SE 9.2 mph - N/A   Clear